Regional Weather Roundup
Issued by NWS

Home | Current Version | Previous Version | Graphics & Text | Print | Product List | Glossary On
Versions: 1 2 3 4 5 6 7 8 9 10 11 12 13 14 15 16 17 18 19 20 21 22 23 24 25 26 27 28 29 30 31 32 33 34 35 36 37 38 39 40 41 42 43 44 45 46 47 48 49 50
000
ASUS45 KSLC 271010
RWRUT

UTAH REGIONAL WEATHER ROUNDUP
NATIONAL WEATHER SERVICE SALT LAKE CITY UT
300 AM MST TUE JAN 27 2015

UTZ001>011-023>025-271100-

NORTHERN UTAH

CITY           SKY/WX    TMP DP  RH WIND       PRES   REMARKS
BRIGHAM CITY   PTCLDY    31  30  93 CALM      30.19S
HILL AFB       PTCLDY    37  31  77 E3        30.17F
LOGAN          CLEAR     27  25  92 CALM      30.19S
OGDEN          PTCLDY    31  30  96 SE3       30.17F FOG
PROVO AIRPORT  PTCLDY    28  27  93 CALM      30.20S
SALT LAKE CITY PTCLDY    31  29  92 CALM      30.18S
VERNAL         PTCLDY    23  18  81 CALM      30.33S
WENDOVER       MOCLDY    30  27  86 CALM      30.20R
HEBER CITY     PTCLDY    25  23  93 CALM      30.23S
WEST JORDAN    CLEAR     34  30  86 CALM      30.18S

$$

UTZ012>022-026-027-271100-

SOUTHERN/CENTRAL UTAH

CITY           SKY/WX    TMP DP  RH WIND       PRES   REMARKS
BLANDING       CLEAR     37  25  61 NE5       30.38S WCI  33
BRYCE CANYON   LGT SNOW  31  27  85 CALM      30.31S
CEDAR CITY     CLOUDY    44  29  55 SW10G23   30.22R
DELTA          CLOUDY    32  31  94 N5        30.20R WCI  27
MILFORD        CLOUDY    35  30  82 S9        30.20R WCI  28
MOAB/CYNLANDS  CLEAR     31  27  85 CALM      30.29R
PRICE          MOCLDY    33  23  66 CALM      30.29S
ST GEORGE      CLOUDY    48  37  66 NE6       30.25R
KANAB          CLOUDY    43  32  65 CALM      30.31R

$$

REGIONAL REPORTS     COLORADO/ARIZONA

CITY           SKY/WX    TMP DP  RH WIND       PRES   REMARKS
CRAIG, CO      CLEAR     13  11  92 W3        30.35S
GRAND JUNCTION PTCLDY    32  26  78 SE8       30.30S WCI  25
RIFLE          PTCLDY    28  22  78 CALM      30.36S
MONTROSE       PTCLDY    29  22  75 S7        30.35F WCI  22
CORTEZ         CLEAR     28  22  78 E8        30.33S WCI  20
PAGE, AZ       NOT AVBL
GRAND CANYON   LGT RAIN  38  36  92 NE3       30.30S
KINGMAN        LGT RAIN  46  44  93 S5        30.22S
FLAGSTAFF      CLOUDY    39  29  67 VRB3      30.30F

$$

REGIONAL REPORTS    NEVADA/IDAHO/WYOMING

CITY           SKY/WX    TMP DP  RH WIND       PRES   REMARKS
LAS VEGAS, NV  LGT RAIN  51  48  89 S6        30.17R FOG
ELY            CLOUDY    36  27  69 S12       30.21R WCI  28
ELKO           MOCLDY    33  27  78 E3        30.12S
POCATELLO, ID  CLEAR     26  26 100 NE5       30.15F WCI  20
BURLEY         PTCLDY    33  30  88 E7        30.08F WCI  27
EVANSTON, WY   PTCLDY    34  25  69 E8        30.25S WCI  27
ROCK SPRINGS   PTCLDY    30  23  75 NE3       30.26S
KEMMERER       PTCLDY    28  21  74 N9        30.27F WCI  20

$$


USA.gov is the U.S. government's official web portal to all federal, state and local government web resources and services.